www.pogodaiklimat.ru

Погода и климат >> Архив погоды >> Россия >> Новосибирская область >> Венгерово


ПОГОДА в Венгерово

  • Прогноз погоды в Венгерово
  • Монитор погоды в Венгерово

АРХИВ ПОГОДЫ в Венгерово

Время (UTC), дата Ветер
(напр.,м/с)
 
Видим.   Явления Облачность Т
(С)
Тd
(С)
f
(%)
Тe
(С)
Тes
(С)
Комфортность P
(гПа)
Po
(гПа)
Тmin
(С)
Tmax
(С)
R
(мм)
R24
(мм)
S
(см)
09 11.06 ЮЗ 4 20 км 7 баллов +25.0 +16.2 58 +28 +31 жарко 1010.8 998.7
12 11.06 Ю 5 20 км 6/3 1000 м
[Cu hum Ci fib]
+25.7 +16.0 55 +29 +30 душно 1008.2 996.2 +26.0
15 11.06 Ю 2 20 км 7 баллов +22.5 +16.3 68 +27 +27 душно 1008.2 996.0
18 11.06 ЮЗ 3 20 км 9/0
[Ac As Ci fib]
+19.0 +16.2 84 +21 +21 комфорт 1007.0 994.7
21 11.06 ЮЗ 3 20 км 4 балла +18.6 +15.3 81 +20 +20 1005.6 993.3
00 12.06 Ю 3 4000 м дымка 9/3 1000 м
[Sc Ac lent Ci]
+16.9 +15.9 94 +17 +17 1004.3 992.0 +16.1
03 12.06 СЗ 1 20 км гроза без осадков 7 баллов +22.0 +16.0 69 +26 +29 душно 1004.2 992.0
06 12.06 ЮВ 1 4000 м гроза, ливневой дождь 10/10 600 м
[Cb cap]
+18.6 +17.3 92 +21 +21 комфорт 1004.3 992.0
09 12.06 ЮЗ 2 20 км 9 баллов +20.1 +17.7 86 +24 +25 комфорт 1002.9 990.7
12 12.06 ЮЗ 3 20 км {гроза, ливн. осадки} 9/4 1000 м
[Cu med, cong Ac trans Ci sp]
+21.9 +16.7 72 +26 +27 душно 1000.9 988.8 +22.0 5
15 12.06 ЮЗ 1 10 км гроза без осадков 7 баллов +19.4 +17.2 87 +23 +23 комфорт 1001.5 989.3
18 12.06 ЮЗ 4
{10}
20 км зарница {гроза, ливн. осадки} 8/6 600 м
[Cb cap Ci sp]
+15.0 +13.3 90 +14 +14 999.7 987.3
21 12.06 ЮЗ 3 20 км 6 баллов +14.2 +12.9 92 +13 +13 1000.5 988.0
00 13.06 ЮЗ 4 10 км {гроза} 4/0
[Ac cuf Ci sp]
+15.6 +14.4 93 +15 +15 998.2 985.9 +13.0 4
03 13.06 ЮЗ 5 20 км 9 баллов +19.3 +14.8 75 +21 +21 комфорт 998.9 986.7
06 13.06 З 7-10
{10}
20 км 9/4 600 м
[Sc Ac As Cc]
+21.7 +12.8 57 +24 +25 комфорт 998.8 986.7
09 13.06 СЗ 5
{14}
4000 м в посл. час гроза {ливн. осадки} 9/9 600 м
[Cb cap]
+18.7 +14.0 74 +19 +20 998.9 986.7
12 13.06 СЗ 4
{10}
20 км {гроза, ливн. осадки} 9/8 600 м
[Cb cap Ac lent]
+17.8 +7.9 52 +18 +18 999.1 986.8 +22.2 3
15 13.06 З 3 20 км 9 баллов +13.0 +10.0 82 +12 +12 1001.8 989.3
18 13.06 З 3 20 км {ливн. осадки} 3/1 600 м
[Sc Ac trans]
+10.2 +9.0 92 +8 +8 1003.4 990.7
21 13.06 СЗ 2 20 км 2 балла +7.6 +6.4 92 +5 +5 1004.8 992.0
00 14.06 СЗ 3 20 км 1/0
[Ci sp]
+8.7 +7.1 90 +6 +7 1005.5 992.8 +6.8 0.6
03 14.06 З 4 20 км 9 баллов +11.6 +4.3 61 +10 +10 1007.4 994.7
06 14.06 З 5
{10}
20 км 9/9 600 м
[Cu med, cong]
+13.2 +3.0 50 +11 +12 1007.3 994.7
09 14.06 З 6 20 км 10 баллов +12.9 +3.8 54 +11 +11 1007.3 994.7
12 14.06 СЗ 3
{10}
20 км 9/9 1000 м
[Sc]
+12.9 +1.8 47 +12 +12 1006.6 994.0 +13.8
15 14.06 СЗ 2 20 км 9 баллов +11.2 +2.5 55 +10 +10 1008.7 996.0
18 14.06 З 1 20 км 9/9 600 м
[Sc]
+9.3 +4.7 73 +9 +9 1008.8 996.0
21 14.06 З 2 20 км 9 баллов +8.5 +5.4 81 +7 +7 1008.8 996.0
00 15.06 СЗ 2 20 км 3/0
[Ac As]
+8.4 +3.6 72 +7 +8 1009.5 996.7 +7.6
03 15.06 С 2 20 км ясно +11.9 +2.6 53 +11 +19 1010.0 997.3
06 15.06 СЗ 2 20 км 9/9 600 м
[Cu Sc Ci fib]
+12.3 +1.6 48 +12 +13 1011.4 998.7
09 15.06 З 2 20 км 7 баллов +13.8 +2.4 46 +14 +17 1009.9 997.3
12 15.06 СЗ 1 20 км 9/9 600 м
[Sc]
+13.6 +0.9 42 +14 +15 1008.5 996.0 +14.5
15 15.06 С 1 20 км 9 баллов +12.1 +4.3 59 +12 +12 1010.0 997.3
18 15.06 З 2 20 км 10 баллов +10.2 +6.5 78 +9 +9 1008.8 996.0
21 15.06 С 1 20 км 9 баллов +9.4 +5.6 77 +9 +9 1007.5 994.7
00 16.06 С 2 20 км 9/8 1000 м
[Sc Ci sp]
+9.8 +4.9 72 +8 +9 1006.1 993.4 +8.8
03 16.06 С 3 20 км 6 баллов +13.4 +4.0 53 +12 +15 1005.9 993.3
06 16.06 С 3 20 км 9 баллов +14.8 +2.7 44 +14 +16 1005.8 993.3
09 16.06 С 3 20 км 9 баллов +15.7 +1.4 38 +15 +16 1005.8 993.3
12 16.06 Ю 2 20 км 9/8 600 м
[Sc Ac As Ci fib]
+16.5 +3.1 41 +17 +17 1004.8 992.4 +17.4
15 16.06 ЮЗ 2 20 км 7 баллов +13.0 +7.9 71 +12 +12 1007.3 994.7
18 16.06 ЮЗ 3 20 км 4 балла +10.1 +7.2 82 +8 +8 1007.4 994.7
21 16.06 ЮЗ 3 20 км 6 баллов +9.9 +6.4 79 +8 +8 1007.5 994.7
00 17.06 ЮЗ 3 20 км 6/3 1000 м
[Sc Ac trans Ci fib]
+10.0 +7.0 82 +8 +8 1006.3 993.6 +7.3
03 17.06 ЮЗ 5 20 км 2 балла +16.0 +7.5 57 +15 +18 1007.2 994.7
06 17.06 ЮЗ 6 20 км 7 баллов +19.0 +6.1 43 +19 +21 1007.1 994.7
09 17.06 ЮЗ 9-13
{13}
20 км 9/8 600 м
[Cb cap Ac As Ci]
+19.7 +5.7 40 +20 +20 1005.6 993.3
12 17.06 ЮЗ 5
{16}
20 км {ливн. осадки} 9/6 600 м
[Sc Ac As Ci]
+17.9 +8.8 55 +18 +18 1004.0 991.7 +20.8 0.0
15 17.06 С 2
{12}
20 км гроза без осадков 9/8 600 м
[Cb cap Ac As]
+13.7 +7.7 67 +13 +13 1004.6 992.1
18 17.06 С 1 20 км 9 баллов +12.5 +9.9 84 +13 +13 1004.6 992.0
21 17.06 С 1 20 км 9 баллов +11.9 +11.0 94 +12 +12 1003.3 990.7
00 18.06 СВ 3 20 км 9/9 600 м
[Sc Ci sp]
+12.4 +10.7 89 +11 +11 1000.1 987.6 +11.7 0.0
03 18.06 В 4 4000 м слаб. ливневой дождь 10 баллов +12.6 +11.7 94 +11 +11 1000.5 988.0
06 18.06 В 3 4000 м слаб. дождь 10 баллов +12.5 +11.7 95 +11 +11 999.2 986.7

 

Местоположение метеостанции Венгерово (Новосибирская область, Россия): широта 55.67 долгота 76.72 высота над уровнем моря 106 м.

В архиве по умолчанию представлена погода в Венгерово за последнюю неделю. Архивные данные за месяц целиком и за предыдущие месяцы, начиная с января 2011 года, Вы можете получить, выбрав интересующий диапазон дат из раскрывающегося списка и нажав кнопку "Ввод!".


*Определитесь, кто Вы:
робот инопланетянин человек

Внимание! Время в таблицах - всемирное. Для получения местного времени необходимо прибавить поправку, которая равна 7 ч.

Смотрите также архив погоды в соседних городах и на ближайших метеорологических станциях:

Погода в Чанах (Новосибирская область, Россия) (39 км)
Погода в Усть-Тарке (Новосибирская область, Россия) (66 км)
Погода в Татарске (Новосибирская область, Россия) (67 км)
Погода в Квашнино (Новосибирская область, Россия) (101 км)
Погода в Кыштовке (Новосибирская область, Россия) (104 км)
Погода в Чистоозерном (Новосибирская область, Россия) (108 км)
Погода в Барабинске (Новосибирская область, Россия) (111 км)
Погода в Нижней Омке (Омская область, Россия) (116 км)
Погода в Муромцево (Омская область, Россия) (119 км)
Погода в Северном (Новосибирская область, Россия) (126 км)

Пояснения к столбцам:

Ветер - указаны скорость ветра в м/с - средняя за 10 мин, порывы в срок и между сроками (в фигурных скобках) и направление, откуда дует ветер: С - северный, СВ - северо-восточный, В - восточный, ЮВ - юго-восточный, Ю - южный, ЮЗ - юго-западный, З - западный, СЗ - северо-западный.
Видимость - горизонтальная дальность видимости в метрах или километрах. При видимости от 1 до 10 км при отсутствии осадков обычно наблюдается дымка, при ухудшении видимости до 1 км и менее - туман. В сухую погоду видимость может ухудшаться дымом, пылью или мглою.
Явления - указаны атмосферные явления, наблюдавшиеся в срок или в последний час перед сроком; фигурными скобками обозначены явления, наблюдавшиеся между сроками (за 1-3 часа до срока); квадратными скобками обозначены град или гололедные отложения с указанием их диаметра в мм.
Облачность - указаны через наклонную черту общая и нижняя облачность в баллах и высота нижней границы облаков в метрах; квадратными скобками обозначены формы облаков: Ci - перистые, Cs - перисто-слоистые, Cc - перисто-кучевые, Ac - высококучевые, As - высокослоистые, Sc - слоисто-кучевые, Ns - слоисто-дождевые, Cu - кучевые, Cb - кучево-дождевые. Подробнее классификацию облаков см. в Атласе облаков (PDF).
T - Температура воздуха - температура, измеренная на высоте 2 м над землей.
Td - Температура точки росы - температура, при понижении до которой содержащийся в воздухе водяной пар достигнет насыщения.
f - Относительная влажность воздуха - влажноcть воздуха, измеренная на высоте 2 м над землей.
Te - Эффективная температура - температура, которую ощущает одетый по сезону человек в тени. Характеристика душности погоды. При расчете учитывается влияние влажности воздуха и скорости ветра на теплоощущения человека.
Tes - Эффективная температура на солнце - температура, которую ощущает человек, с поправкой на солнечный нагрев. Характеристика знойности погоды. Зависит от высоты солнца над горизонтом, облачности и скорости ветра. Ночью, в пасмурную погоду, а также при ветре 12 м/с и более поправка равна нулю.
P - Атмосферное давление - приведенное к уровню моря атмосферное давление.
Po - Атмосферное давление - измеренное на уровне метеостанции атмосферное давление.
Tmin - Минимальная температура - минимум температуры воздуха на высоте 2 м над землей.
Tmax - Максимальная температура - максимум температуры воздуха на высоте 2 м над землей.
R - Количество осадков - Количество выпавших осадков за период времени, мм. При наведении курсора мыши на число - период времени, за который выпало указанное количество осадков.
R24 - Количество осадков - Количество выпавших осадков за 24 часа, мм.
S - Снежный покров - Высота снежного покрова, см. При наведении курсора мыши на число - состояние снежного покрова и степень покрытия местности в баллах.